| time (UTC) | temp F | wind direction | speed MPH | gust MPH | rain 1hr in | rain 24hr in | rain mn in | humidity % | barometer mb |
| 20260506041326 | 67 | 341 | 2.0 | 8.0 | 0.00 | 0.00 | 0.00 | 68 | 1012.9 |
| 20260506040825 | 67 | 341 | 1.0 | 8.0 | 0.00 | 0.00 | 0.00 | 68 | 1012.9 |
| 20260506040320 | 67 | 341 | 3.0 | 8.0 | 0.00 | 0.00 | 0.00 | 68 | 1013.0 |
| 20260506035846 | 67 | 341 | 1.0 | 8.0 | 0.00 | 0.00 | 0.00 | 68 | 1012.9 |
| 20260506035323 | 68 | 341 | 3.0 | 8.0 | 0.00 | 0.00 | 0.00 | 67 | 1012.9 |
| 20260506034828 | 67 | 341 | 2.0 | 9.0 | 0.00 | 0.00 | 0.00 | 67 | 1012.9 |
| 20260506034328 | 67 | 341 | 2.0 | 12.0 | 0.00 | 0.00 | 0.00 | 67 | 1012.9 |
| 20260506033826 | 67 | 341 | 2.0 | 12.0 | 0.00 | 0.00 | 0.00 | 67 | 1013.0 |
| 20260506033325 | 68 | 341 | 2.0 | 6.0 | 0.00 | 0.00 | 0.00 | 66 | 1012.9 |
| 20260506032854 | 68 | 341 | 2.0 | 5.0 | 0.00 | 0.00 | 0.00 | 66 | 1012.9 |
| 20260506032331 | 68 | 341 | 1.0 | 4.0 | 0.00 | 0.00 | 0.00 | 66 | 1012.9 |
| 20260506031831 | 68 | 341 | 1.0 | 5.0 | 0.00 | 0.00 | 0.00 | 66 | 1013.0 |
| 20260506031327 | 68 | 341 | 2.0 | 5.0 | 0.00 | 0.00 | 0.00 | 66 | 1013.0 |
| 20260506030826 | 68 | 341 | 1.0 | 4.0 | 0.00 | 0.00 | 0.00 | 65 | 1013.0 |
| 20260506030351 | 68 | 341 | 0.0 | 5.0 | 0.00 | 0.00 | 0.00 | 65 | 1013.0 |
| 20260506025828 | 68 | 341 | 1.0 | 8.0 | 0.00 | 0.00 | 0.00 | 64 | 1013.0 |
| 20260506025325 | 68 | 341 | 3.0 | 8.0 | 0.00 | 0.00 | 0.00 | 64 | 1013.0 |
| 20260506024825 | 68 | 341 | 1.0 | 4.0 | 0.00 | 0.00 | 0.00 | 64 | 1012.9 |
| 20260506024324 | 68 | 341 | 1.0 | 4.0 | 0.00 | 0.00 | 0.00 | 63 | 1012.8 |
| 20260506023828 | 68 | 341 | 1.0 | 3.0 | 0.00 | 0.00 | 0.00 | 63 | 1012.9 |
| 20260506023326 | 68 | 341 | 1.0 | 4.0 | 0.00 | 0.00 | 0.00 | 62 | 1012.9 |
| 20260506022853 | 69 | 341 | 1.0 | 4.0 | 0.00 | 0.00 | 0.00 | 62 | 1013.0 |
| 20260506022327 | 69 | 341 | 1.0 | 3.0 | 0.00 | 0.00 | 0.00 | 61 | 1013.0 |
| 20260506021825 | 69 | 341 | 1.0 | 3.0 | 0.00 | 0.00 | 0.00 | 61 | 1012.9 |
| 20260506021323 | 69 | 341 | 0.0 | 3.0 | 0.00 | 0.00 | 0.00 | 61 | 1012.8 |
| 20260506020820 | 69 | 341 | 1.0 | 6.0 | 0.00 | 0.00 | 0.00 | 60 | 1012.8 |
| 20260506020345 | 69 | 341 | 1.0 | 6.0 | 0.00 | 0.00 | 0.00 | 60 | 1012.7 |
| 20260506015824 | 69 | 341 | 0.0 | 8.0 | 0.00 | 0.00 | 0.00 | 59 | 1012.6 |
| 20260506015322 | 70 | 341 | 0.0 | 8.0 | 0.00 | 0.00 | 0.00 | 59 | 1012.6 |
| 20260506014820 | 70 | 341 | 1.0 | 3.0 | 0.00 | 0.00 | 0.00 | 59 | 1012.6 |
| 20260506014347 | 70 | 341 | 0.0 | 3.0 | 0.00 | 0.00 | 0.00 | 58 | 1012.5 |
| 20260506013826 | 70 | 341 | 0.0 | 6.0 | 0.00 | 0.00 | 0.00 | 58 | 1012.5 |
| 20260506013326 | 70 | 341 | 1.0 | 6.0 | 0.00 | 0.00 | 0.00 | 58 | 1012.5 |
| 20260506012822 | 70 | 341 | 1.0 | 3.0 | 0.00 | 0.00 | 0.00 | 57 | 1012.4 |
| 20260506012323 | 71 | 341 | 1.0 | 6.0 | 0.00 | 0.00 | 0.00 | 57 | 1012.4 |
| 20260506011822 | 71 | 341 | 1.0 | 6.0 | 0.00 | 0.00 | 0.00 | 56 | 1012.5 |
| 20260506011322 | 71 | 341 | 1.0 | 5.0 | 0.00 | 0.00 | 0.00 | 56 | 1012.3 |
| 20260506010820 | 71 | 341 | 1.0 | 4.0 | 0.00 | 0.00 | 0.00 | 56 | 1012.2 |
| 20260506010319 | 71 | 341 | 1.0 | 4.0 | 0.00 | 0.00 | 0.00 | 56 | 1012.2 |
| 20260506005820 | 71 | 341 | 1.0 | 4.0 | 0.00 | 0.00 | 0.00 | 56 | 1012.1 |
| 20260506005319 | 71 | 341 | 0.0 | 4.0 | 0.00 | 0.00 | 0.00 | 55 | 1012.1 |
| 20260506004818 | 72 | 341 | 1.0 | 6.0 | 0.00 | 0.00 | 0.00 | 55 | 1012.0 |
| 20260506004317 | 72 | 341 | 0.0 | 6.0 | 0.00 | 0.00 | 0.00 | 54 | 1012.0 |
| 20260506003817 | 72 | 341 | 1.0 | 5.0 | 0.00 | 0.00 | 0.00 | 54 | 1011.9 |
| 20260506003315 | 72 | 341 | 0.0 | 5.0 | 0.00 | 0.00 | 0.00 | 53 | 1012.1 |
| 20260506002815 | 73 | 341 | 0.0 | 2.0 | 0.00 | 0.00 | 0.00 | 53 | 1012.0 |
| 20260506002337 | 73 | 341 | 1.0 | 3.0 | 0.00 | 0.00 | 0.00 | 52 | 1012.1 |
| 20260506001814 | 73 | 341 | 0.0 | 3.0 | 0.00 | 0.00 | 0.00 | 51 | 1011.9 |
| 20260506001314 | 74 | 341 | 0.0 | 4.0 | 0.00 | 0.00 | 0.00 | 51 | 1012.0 |
| 20260506000812 | 74 | 341 | 1.0 | 4.0 | 0.00 | 0.00 | 0.00 | 50 | 1012.0 |
| 20260506000340 | 75 | 341 | 1.0 | 3.0 | 0.00 | 0.00 | 0.00 | 49 | 1012.0 |
| 20260505235837 | 75 | 341 | 0.0 | 3.0 | 0.00 | 0.00 | 0.00 | 49 | 1011.9 |
| 20260505235316 | 75 | 341 | 1.0 | 6.0 | 0.00 | 0.00 | 0.00 | 48 | 1012.0 |
| 20260505234816 | 76 | 341 | 1.0 | 6.0 | 0.00 | 0.00 | 0.00 | 48 | 1011.8 |
| 20260505234317 | 77 | 341 | 1.0 | 4.0 | 0.00 | 0.00 | 0.00 | 46 | 1011.9 |
| 20260505233815 | 78 | 341 | 1.0 | 6.0 | 0.00 | 0.00 | 0.00 | 44 | 1011.8 |
| 20260505233313 | 78 | 341 | 1.0 | 10.0 | 0.00 | 0.00 | 0.00 | 44 | 1011.8 |
| 20260505232835 | 78 | 341 | 2.0 | 10.0 | 0.00 | 0.00 | 0.00 | 43 | 1011.9 |
| 20260505232335 | 78 | 341 | 2.0 | 11.0 | 0.00 | 0.00 | 0.00 | 43 | 1011.7 |
| 20260505231839 | 78 | 341 | 2.0 | 17.0 | 0.00 | 0.00 | 0.00 | 43 | 1011.8 |
| 20260505231337 | 79 | 341 | 4.0 | 13.0 | 0.00 | 0.00 | 0.00 | 42 | 1011.8 |
| 20260505230813 | 79 | 341 | 3.0 | 11.0 | 0.00 | 0.00 | 0.00 | 42 | 1011.8 |
| 20260505230313 | 79 | 341 | 5.0 | 11.0 | 0.00 | 0.00 | 0.00 | 42 | 1011.7 |
| 20260505225816 | 79 | 341 | 4.0 | 10.0 | 0.00 | 0.00 | 0.00 | 42 | 1011.9 |
| 20260505225316 | 79 | 341 | 2.0 | 9.0 | 0.00 | 0.00 | 0.00 | 43 | 1011.9 |
| 20260505224815 | 80 | 341 | 2.0 | 12.0 | 0.00 | 0.00 | 0.00 | 43 | 1011.8 |
| 20260505224314 | 80 | 341 | 2.0 | 11.0 | 0.00 | 0.00 | 0.00 | 43 | 1011.8 |
| 20260505223836 | 79 | 341 | 2.0 | 9.0 | 0.00 | 0.00 | 0.00 | 43 | 1011.8 |
| 20260505223334 | 80 | 341 | 4.0 | 14.0 | 0.00 | 0.00 | 0.00 | 43 | 1011.9 |
| 20260505222839 | 79 | 341 | 6.0 | 15.0 | 0.00 | 0.00 | 0.00 | 42 | 1012.0 |
| 20260505222316 | 79 | 341 | 6.0 | 15.0 | 0.00 | 0.00 | 0.00 | 42 | 1012.1 |
| 20260505221841 | 79 | 341 | 3.0 | 9.0 | 0.00 | 0.00 | 0.00 | 42 | 1012.0 |
| 20260505221320 | 79 | 341 | 3.0 | 9.0 | 0.00 | 0.00 | 0.00 | 41 | 1012.1 |
| 20260505220818 | 79 | 341 | 3.0 | 9.0 | 0.00 | 0.00 | 0.00 | 42 | 1012.0 |
| 20260505220317 | 79 | 341 | 5.0 | 13.0 | 0.00 | 0.00 | 0.00 | 42 | 1011.9 |
| 20260505215816 | 79 | 341 | 4.0 | 16.0 | 0.00 | 0.00 | 0.00 | 43 | 1011.9 |
| 20260505215338 | 79 | 341 | 4.0 | 16.0 | 0.00 | 0.00 | 0.00 | 41 | 1011.9 |
| 20260505214816 | 79 | 341 | 4.0 | 15.0 | 0.00 | 0.00 | 0.00 | 42 | 1012.0 |
| 20260505214344 | 80 | 341 | 4.0 | 15.0 | 0.00 | 0.00 | 0.00 | 41 | 1011.9 |
| 20260505213822 | 80 | 341 | 3.0 | 9.0 | 0.00 | 0.00 | 0.00 | 41 | 1011.8 |
| 20260505213321 | 81 | 341 | 4.0 | 12.0 | 0.00 | 0.00 | 0.00 | 40 | 1011.8 |
| 20260505212821 | 81 | 341 | 4.0 | 12.0 | 0.00 | 0.00 | 0.00 | 40 | 1011.7 |
| 20260505212320 | 82 | 341 | 4.0 | 14.0 | 0.00 | 0.00 | 0.00 | 40 | 1011.9 |
| 20260505211845 | 82 | 341 | 5.0 | 16.0 | 0.00 | 0.00 | 0.00 | 39 | 1011.9 |
| 20260505211350 | 82 | 341 | 3.0 | 16.0 | 0.00 | 0.00 | 0.00 | 39 | 1011.8 |
| 20260505210828 | 82 | 341 | 5.0 | 17.0 | 0.00 | 0.00 | 0.00 | 38 | 1011.7 |
| 20260505210322 | 82 | 341 | 7.0 | 17.0 | 0.00 | 0.00 | 0.00 | 40 | 1011.8 |
| 20260505205821 | 82 | 341 | 5.0 | 21.0 | 0.00 | 0.00 | 0.00 | 38 | 1011.9 |
| 20260505205321 | 82 | 341 | 6.0 | 21.0 | 0.00 | 0.00 | 0.00 | 39 | 1012.1 |
| 20260505204848 | 82 | 341 | 5.0 | 14.0 | 0.00 | 0.00 | 0.00 | 38 | 1012.0 |
| 20260505204325 | 82 | 341 | 4.0 | 13.0 | 0.00 | 0.00 | 0.00 | 38 | 1012.0 |
| 20260505203824 | 81 | 341 | 4.0 | 13.0 | 0.00 | 0.00 | 0.00 | 39 | 1012.0 |
| 20260505203323 | 81 | 341 | 5.0 | 13.0 | 0.00 | 0.00 | 0.00 | 39 | 1012.2 |
| 20260505202822 | 80 | 341 | 4.0 | 15.0 | 0.00 | 0.00 | 0.00 | 38 | 1012.1 |
| 20260505202320 | 80 | 341 | 7.0 | 14.0 | 0.00 | 0.00 | 0.00 | 40 | 1012.2 |
| 20260505201818 | 80 | 341 | 4.0 | 15.0 | 0.00 | 0.00 | 0.00 | 39 | 1012.1 |
| 20260505201318 | 80 | 341 | 4.0 | 15.0 | 0.00 | 0.00 | 0.00 | 39 | 1012.2 |
| 20260505200837 | 80 | 341 | 3.0 | 21.0 | 0.00 | 0.00 | 0.00 | 40 | 1012.1 |
| 20260505200316 | 80 | 341 | 7.0 | 21.0 | 0.00 | 0.00 | 0.00 | 37 | 1012.2 |
| 20260505195821 | 81 | 341 | 5.0 | 19.0 | 0.00 | 0.00 | 0.00 | 37 | 1012.2 |
| 20260505195320 | 81 | 341 | 7.0 | 19.0 | 0.00 | 0.00 | 0.00 | 37 | 1012.3 |
| 20260505194819 | 81 | 341 | 6.0 | 17.0 | 0.00 | 0.00 | 0.00 | 37 | 1012.4 |
| 20260505194317 | 81 | 341 | 6.0 | 17.0 | 0.00 | 0.00 | 0.00 | 38 | 1012.4 |
| 20260505193844 | 82 | 341 | 5.0 | 15.0 | 0.00 | 0.00 | 0.00 | 36 | 1012.5 |
| 20260505193322 | 82 | 341 | 2.0 | 21.0 | 0.00 | 0.00 | 0.00 | 37 | 1012.5 |
| 20260505192822 | 82 | 341 | 8.0 | 21.0 | 0.00 | 0.00 | 0.00 | 36 | 1012.6 |
| 20260505192319 | 82 | 341 | 5.0 | 14.0 | 0.00 | 0.00 | 0.00 | 36 | 1012.7 |
| 20260505191817 | 82 | 341 | 5.0 | 13.0 | 0.00 | 0.00 | 0.00 | 36 | 1012.7 |
| 20260505191314 | 82 | 341 | 4.0 | 13.0 | 0.00 | 0.00 | 0.00 | 36 | 1012.8 |
| 20260505190858 | 82 | 341 | 5.0 | 23.0 | 0.00 | 0.00 | 0.00 | 35 | 1012.7 |
| 20260505190334 | 82 | 341 | 7.0 | 23.0 | 0.00 | 0.00 | 0.00 | 36 | 1012.7 |
| 20260505185812 | 83 | 341 | 4.0 | 12.0 | 0.00 | 0.00 | 0.00 | 35 | 1012.8 |
| 20260505185337 | 82 | 341 | 4.0 | 15.0 | 0.00 | 0.00 | 0.00 | 37 | 1012.9 |
| 20260505184836 | 82 | 341 | 5.0 | 17.0 | 0.00 | 0.00 | 0.00 | 36 | 1012.9 |
| 20260505184337 | 82 | 341 | 8.0 | 15.0 | 0.00 | 0.00 | 0.00 | 36 | 1013.0 |
| 20260505183837 | 82 | 341 | 5.0 | 14.0 | 0.00 | 0.00 | 0.00 | 36 | 1013.1 |
| 20260505183336 | 82 | 341 | 5.0 | 15.0 | 0.00 | 0.00 | 0.00 | 34 | 1013.1 |
| 20260505182833 | 82 | 341 | 6.0 | 17.0 | 0.00 | 0.00 | 0.00 | 35 | 1013.3 |
| 20260505182328 | 82 | 341 | 4.0 | 17.0 | 0.00 | 0.00 | 0.00 | 37 | 1013.3 |
| 20260505181827 | 81 | 341 | 3.0 | 12.0 | 0.00 | 0.00 | 0.00 | 37 | 1013.4 |
| 20260505181325 | 81 | 341 | 4.0 | 14.0 | 0.00 | 0.00 | 0.00 | 38 | 1013.5 |
| 20260505180823 | 81 | 341 | 5.0 | 16.0 | 0.00 | 0.00 | 0.00 | 39 | 1013.6 |
| 20260505180349 | 81 | 341 | 9.0 | 15.0 | 0.00 | 0.00 | 0.00 | 39 | 1013.7 |
| 20260505175826 | 81 | 341 | 6.0 | 13.0 | 0.00 | 0.00 | 0.00 | 40 | 1013.7 |
| 20260505175325 | 81 | 341 | 7.0 | 21.0 | 0.00 | 0.00 | 0.00 | 38 | 1013.8 |
| 20260505174825 | 81 | 341 | 8.0 | 21.0 | 0.00 | 0.00 | 0.00 | 36 | 1013.8 |
| 20260505174323 | 81 | 341 | 5.0 | 11.0 | 0.00 | 0.00 | 0.00 | 40 | 1013.7 |
| 20260505173821 | 81 | 341 | 4.0 | 21.0 | 0.00 | 0.00 | 0.00 | 39 | 1013.8 |
| 20260505173320 | 80 | 341 | 4.0 | 12.0 | 0.00 | 0.00 | 0.00 | 39 | 1013.8 |
| 20260505172819 | 80 | 341 | 5.0 | 15.0 | 0.00 | 0.00 | 0.00 | 39 | 1013.9 |
| 20260505172315 | 79 | 341 | 7.0 | 15.0 | 0.00 | 0.00 | 0.00 | 38 | 1014.0 |
| 20260505171815 | 80 | 341 | 5.0 | 14.0 | 0.00 | 0.00 | 0.00 | 38 | 1014.1 |
| 20260505171314 | 80 | 341 | 3.0 | 21.0 | 0.00 | 0.00 | 0.00 | 38 | 1014.0 |
| 20260505170812 | 79 | 341 | 5.0 | 14.0 | 0.00 | 0.00 | 0.00 | 38 | 1014.0 |
| 20260505170357 | 79 | 341 | 6.0 | 15.0 | 0.00 | 0.00 | 0.00 | 38 | 1014.1 |
| 20260505165833 | 79 | 341 | 7.0 | 13.0 | 0.00 | 0.00 | 0.00 | 39 | 1014.2 |
| 20260505165332 | 79 | 341 | 4.0 | 12.0 | 0.00 | 0.00 | 0.00 | 42 | 1014.3 |
| 20260505164832 | 79 | 341 | 6.0 | 12.0 | 0.00 | 0.00 | 0.00 | 44 | 1014.2 |
| 20260505164312 | 79 | 341 | 4.0 | 9.0 | 0.00 | 0.00 | 0.00 | 44 | 1014.3 |
| 20260505163837 | 78 | 341 | 4.0 | 10.0 | 0.00 | 0.00 | 0.00 | 43 | 1014.3 |
| 20260505163340 | 78 | 341 | 5.0 | 12.0 | 0.00 | 0.00 | 0.00 | 45 | 1014.3 |
| 20260505162819 | 78 | 341 | 5.0 | 13.0 | 0.00 | 0.00 | 0.00 | 46 | 1014.3 |
| 20260505162318 | 78 | 341 | 6.0 | 13.0 | 0.00 | 0.00 | 0.00 | 45 | 1014.5 |
| 20260505161817 | 78 | 341 | 2.0 | 8.0 | 0.00 | 0.00 | 0.00 | 47 | 1014.4 |
| 20260505161314 | 77 | 341 | 3.0 | 17.0 | 0.00 | 0.00 | 0.00 | 48 | 1014.5 |
| 20260505160840 | 76 | 341 | 7.0 | 17.0 | 0.00 | 0.00 | 0.00 | 47 | 1014.5 |
| 20260505160342 | 76 | 341 | 3.0 | 13.0 | 0.00 | 0.00 | 0.00 | 50 | 1014.7 |
| 20260505153322 | 74 | 341 | 4.0 | 14.0 | 0.00 | 0.00 | 0.00 | 53 | 1015.1 |
| 20260505152821 | 74 | 341 | 5.0 | 14.0 | 0.00 | 0.00 | 0.00 | 52 | 1015.1 |
| 20260505152320 | 74 | 341 | 5.0 | 11.0 | 0.00 | 0.00 | 0.00 | 53 | 1015.3 |
| 20260505151820 | 74 | 341 | 5.0 | 11.0 | 0.00 | 0.00 | 0.00 | 53 | 1015.2 |
| 20260505151346 | 73 | 341 | 3.0 | 9.0 | 0.00 | 0.00 | 0.00 | 54 | 1015.3 |
| 20260505150850 | 73 | 341 | 3.0 | 9.0 | 0.00 | 0.00 | 0.00 | 56 | 1015.3 |
| 20260505150327 | 72 | 341 | 4.0 | 10.0 | 0.00 | 0.00 | 0.00 | 57 | 1015.2 |
| 20260505140318 | 67 | 341 | 4.0 | 8.0 | 0.00 | 0.00 | 0.00 | 64 | 1014.9 |
| 20260505124816 | 63 | 341 | 2.0 | 12.0 | 0.00 | 0.00 | 0.00 | 70 | 1015.1 |
| 20260505124317 | 62 | 341 | 4.0 | 8.0 | 0.00 | 0.00 | 0.00 | 71 | 1015.2 |
| 20260505123840 | 62 | 341 | 4.0 | 10.0 | 0.00 | 0.00 | 0.00 | 72 | 1015.2 |
| 20260505123317 | 61 | 341 | 4.0 | 11.0 | 0.00 | 0.00 | 0.00 | 73 | 1015.2 |
| 20260505122816 | 61 | 341 | 4.0 | 10.0 | 0.00 | 0.00 | 0.00 | 73 | 1015.1 |
| 20260505122316 | 60 | 341 | 5.0 | 9.0 | 0.00 | 0.00 | 0.00 | 75 | 1015.1 |
| 20260505121815 | 60 | 341 | 4.0 | 9.0 | 0.00 | 0.00 | 0.00 | 75 | 1015.1 |
| 20260505121315 | 59 | 341 | 2.0 | 8.0 | 0.00 | 0.00 | 0.00 | 76 | 1015.0 |
| 20260505120836 | 59 | 341 | 2.0 | 8.0 | 0.00 | 0.00 | 0.00 | 77 | 1015.0 |
| 20260505120333 | 59 | 341 | 2.0 | 7.0 | 0.00 | 0.00 | 0.00 | 78 | 1015.0 |
| 20260505115830 | 58 | 341 | 2.0 | 6.0 | 0.00 | 0.00 | 0.00 | 77 | 1014.9 |
| 20260505115329 | 58 | 341 | 2.0 | 8.0 | 0.00 | 0.00 | 0.00 | 77 | 1014.8 |
| 20260505114853 | 58 | 341 | 4.0 | 8.0 | 0.00 | 0.00 | 0.00 | 77 | 1014.8 |
| 20260505114329 | 58 | 341 | 3.0 | 10.0 | 0.00 | 0.00 | 0.00 | 77 | 1014.5 |
| 20260505113826 | 58 | 341 | 5.0 | 10.0 | 0.00 | 0.00 | 0.00 | 78 | 1014.3 |
| 20260505113325 | 58 | 341 | 3.0 | 10.0 | 0.00 | 0.00 | 0.00 | 78 | 1014.5 |
| 20260505112825 | 58 | 341 | 3.0 | 9.0 | 0.00 | 0.00 | 0.00 | 78 | 1014.3 |
| 20260505112323 | 57 | 341 | 2.0 | 9.0 | 0.00 | 0.00 | 0.00 | 79 | 1014.3 |
| 20260505111821 | 57 | 341 | 2.0 | 7.0 | 0.00 | 0.00 | 0.00 | 79 | 1014.4 |
| 20260505111317 | 57 | 341 | 3.0 | 6.0 | 0.00 | 0.00 | 0.00 | 79 | 1014.4 |
| 20260505110816 | 57 | 341 | 2.0 | 10.0 | 0.00 | 0.00 | 0.00 | 80 | 1014.5 |
| 20260505110316 | 56 | 341 | 3.0 | 10.0 | 0.00 | 0.00 | 0.00 | 80 | 1014.5 |
| 20260505101833 | 57 | 341 | 1.0 | 6.0 | 0.00 | 0.00 | 0.00 | 79 | 1014.2 |
| 20260505101332 | 57 | 341 | 1.0 | 5.0 | 0.00 | 0.00 | 0.00 | 79 | 1014.2 |
| 20260505100830 | 57 | 341 | 2.0 | 6.0 | 0.00 | 0.00 | 0.00 | 79 | 1014.1 |
| 20260505100329 | 57 | 341 | 1.0 | 6.0 | 0.00 | 0.00 | 0.00 | 78 | 1013.9 |
| 20260505095827 | 57 | 341 | 1.0 | 5.0 | 0.00 | 0.00 | 0.00 | 78 | 1014.0 |
| 20260505095324 | 57 | 341 | 2.0 | 5.0 | 0.00 | 0.00 | 0.00 | 78 | 1013.9 |
| 20260505094822 | 57 | 341 | 1.0 | 4.0 | 0.00 | 0.00 | 0.00 | 78 | 1013.9 |
| 20260505094320 | 57 | 341 | 2.0 | 5.0 | 0.00 | 0.00 | 0.00 | 77 | 1013.9 |
| 20260505093818 | 57 | 341 | 1.0 | 6.0 | 0.00 | 0.00 | 0.00 | 77 | 1013.9 |
| 20260505093315 | 58 | 341 | 2.0 | 7.0 | 0.00 | 0.00 | 0.00 | 77 | 1013.8 |
| 20260505092814 | 58 | 341 | 2.0 | 7.0 | 0.00 | 0.00 | 0.00 | 77 | 1014.0 |
| 20260505092312 | 58 | 341 | 2.0 | 5.0 | 0.00 | 0.00 | 0.00 | 77 | 1014.0 |
| 20260505091834 | 58 | 341 | 1.0 | 5.0 | 0.00 | 0.00 | 0.00 | 76 | 1013.9 |
| 20260505091333 | 58 | 341 | 2.0 | 4.0 | 0.00 | 0.00 | 0.00 | 76 | 1014.0 |
| 20260505090836 | 58 | 341 | 1.0 | 4.0 | 0.00 | 0.00 | 0.00 | 76 | 1013.9 |
| 20260505090333 | 58 | 341 | 1.0 | 5.0 | 0.00 | 0.00 | 0.00 | 76 | 1013.9 |
| 20260505085831 | 58 | 341 | 1.0 | 6.0 | 0.00 | 0.00 | 0.00 | 75 | 1013.7 |
| 20260505085328 | 59 | 341 | 1.0 | 4.0 | 0.00 | 0.00 | 0.00 | 75 | 1013.8 |
| 20260505084830 | 59 | 341 | 1.0 | 4.0 | 0.00 | 0.00 | 0.00 | 75 | 1013.7 |
| 20260505084328 | 59 | 341 | 1.0 | 6.0 | 0.00 | 0.00 | 0.00 | 75 | 1013.7 |
| 20260505083825 | 59 | 341 | 1.0 | 4.0 | 0.00 | 0.00 | 0.00 | 75 | 1013.7 |
| 20260505083325 | 59 | 341 | 1.0 | 3.0 | 0.00 | 0.00 | 0.00 | 75 | 1013.6 |
| 20260505082823 | 59 | 341 | 0.0 | 5.0 | 0.00 | 0.00 | 0.00 | 75 | 1013.6 |
| 20260505082322 | 59 | 341 | 0.0 | 5.0 | 0.00 | 0.00 | 0.00 | 75 | 1013.6 |
| 20260505081817 | 59 | 341 | 1.0 | 6.0 | 0.00 | 0.00 | 0.00 | 75 | 1013.5 |
| 20260505081316 | 59 | 341 | 1.0 | 6.0 | 0.00 | 0.00 | 0.00 | 75 | 1013.5 |
| 20260505080816 | 59 | 341 | 1.0 | 4.0 | 0.00 | 0.00 | 0.00 | 75 | 1013.5 |
| 20260505080315 | 59 | 341 | 1.0 | 5.0 | 0.00 | 0.00 | 0.00 | 75 | 1013.4 |
| 20260505075814 | 59 | 341 | 1.0 | 5.0 | 0.00 | 0.00 | 0.00 | 75 | 1013.5 |
| 20260505075338 | 59 | 341 | 1.0 | 5.0 | 0.00 | 0.00 | 0.00 | 74 | 1013.5 |
| 20260505074836 | 59 | 341 | 1.0 | 5.0 | 0.00 | 0.00 | 0.00 | 74 | 1013.5 |
| 20260505074333 | 59 | 341 | 1.0 | 5.0 | 0.00 | 0.00 | 0.00 | 74 | 1013.3 |
| 20260505073830 | 59 | 341 | 1.0 | 4.0 | 0.00 | 0.00 | 0.00 | 74 | 1013.4 |
| 20260505073328 | 59 | 341 | 1.0 | 4.0 | 0.00 | 0.00 | 0.00 | 74 | 1013.4 |
| 20260505072826 | 59 | 341 | 1.0 | 8.0 | 0.00 | 0.00 | 0.00 | 73 | 1013.3 |
| 20260505072349 | 60 | 341 | 1.0 | 8.0 | 0.00 | 0.00 | 0.00 | 73 | 1013.2 |
| 20260505071824 | 60 | 341 | 1.0 | 5.0 | 0.00 | 0.00 | 0.00 | 72 | 1013.2 |
| 20260505071325 | 60 | 341 | 1.0 | 5.0 | 0.00 | 0.00 | 0.00 | 72 | 1013.1 |
| 20260505070824 | 60 | 341 | 1.0 | 6.0 | 0.00 | 0.00 | 0.00 | 71 | 1013.1 |
| 20260505070323 | 60 | 341 | 1.0 | 7.0 | 0.00 | 0.00 | 0.00 | 71 | 1013.1 |
| 20260505065820 | 61 | 341 | 2.0 | 6.0 | 0.00 | 0.00 | 0.00 | 70 | 1013.1 |
| 20260505065321 | 61 | 341 | 1.0 | 6.0 | 0.00 | 0.00 | 0.00 | 70 | 1013.0 |
| 20260505064844 | 61 | 341 | 0.0 | 7.0 | 0.00 | 0.00 | 0.00 | 69 | 1013.0 |
| 20260505064322 | 61 | 341 | 2.0 | 7.0 | 0.00 | 0.00 | 0.00 | 69 | 1013.0 |
| 20260505063822 | 61 | 341 | 1.0 | 9.0 | 0.00 | 0.00 | 0.00 | 68 | 1012.9 |
| 20260505063347 | 61 | 341 | 1.0 | 9.0 | 0.00 | 0.00 | 0.00 | 67 | 1013.0 |
| 20260505062820 | 61 | 341 | 1.0 | 5.0 | 0.00 | 0.00 | 0.00 | 67 | 1013.0 |
| 20260505062315 | 61 | 341 | 1.0 | 5.0 | 0.00 | 0.00 | 0.00 | 67 | 1013.0 |
| 20260505061814 | 61 | 341 | 1.0 | 5.0 | 0.00 | 0.00 | 0.00 | 66 | 1013.1 |
| 20260505061313 | 61 | 341 | 1.0 | 4.0 | 0.00 | 0.00 | 0.00 | 66 | 1013.0 |
| 20260505060837 | 61 | 341 | 1.0 | 6.0 | 0.00 | 0.00 | 0.00 | 65 | 1013.1 |
| 20260505060336 | 61 | 341 | 1.0 | 6.0 | 0.00 | 0.00 | 0.00 | 65 | 1013.0 |
| 20260505055813 | 61 | 341 | 0.0 | 5.0 | 0.00 | 0.00 | 0.00 | 64 | 1013.1 |
| 20260505055312 | 61 | 341 | 1.0 | 6.0 | 0.00 | 0.00 | 0.00 | 64 | 1013.0 |
| 20260505054835 | 61 | 341 | 1.0 | 6.0 | 0.00 | 0.00 | 0.00 | 63 | 1013.0 |
| 20260505054333 | 61 | 341 | 2.0 | 6.0 | 0.00 | 0.00 | 0.00 | 63 | 1013.0 |
| 20260505053827 | 61 | 341 | 1.0 | 4.0 | 0.00 | 0.00 | 0.00 | 63 | 1013.1 |
| 20260505053325 | 61 | 341 | 1.0 | 3.0 | 0.00 | 0.00 | 0.00 | 63 | 1013.2 |
| 20260505052825 | 61 | 341 | 0.0 | 2.0 | 0.00 | 0.00 | 0.00 | 63 | 1013.2 |
| 20260505052323 | 61 | 341 | 0.0 | 2.0 | 0.00 | 0.00 | 0.00 | 62 | 1013.2 |